Regional Weather Roundup
Issued by NWS State College, PA

Home | Current Version | Previous Version | Text Only | Print | Product List | Glossary On
Versions: 1 2 3 4 5 6 7 8 9 10 11 12 13 14 15 16 17 18 19 20 21 22 23 24 25 26 27 28 29 30 31 32 33 34 35 36 37 38 39 40 41 42 43 44 45 46 47 48 49 50
000
ASUS41 KCTP 311403
RWRCTP

REGIONAL WEATHER ROUNDUP
NATIONAL WEATHER SERVICE STATE COLLEGE PA
1000 AM EDT FRI JUL 31 2015

Note: "fair" indicates few or no clouds below 12,000 feet with no
significant weather and/or obstructions to visibility.

* = STATION THAT DOES NOT REPORT PRECIPITATION /E.G. RAIN...SNOW...ETC/
    THUNDER OR FOG.

PAZ002>004-007>009-013>016-020>023-029>032-311500-
WESTERN PENNSYLVANIA

CITY           SKY/WX    TMP DP  RH WIND       PRES   REMARKS
ERIE           MOSUNNY   77  65  66 W12       29.93F
MEADVILLE      SUNNY     75  61  61 W8        29.98F
FRANKLIN*      SUNNY     73  61  64 SW6       30.01S
NEW CASTLE     FAIR      78  62  57 W6        30.00F
BEAVER COUNTY  SUNNY     75  59  57 W3        30.01F
BUTLER*        SUNNY     75  61  60 W7        30.02F
PITTSBURGH INT SUNNY     76  58  53 VRB5      30.01S
PITTSBURGH     SUNNY     76  54  46 NW6       30.01F
INDIANA*       SUNNY     73  63  68 SW5       30.05S
LATROBE        SUNNY     73  61  64 S5        30.03F
WASHINGTON CO* NOT AVBL
$$

PAZ004>006-010>012-017>019-024>028-033>037-041-042-045-046-049>053-311500-
CENTRAL PENNSYLVANIA

CITY           SKY/WX    TMP DP  RH WIND       PRES   REMARKS
BRADFORD       SUNNY     71  59  65 W7        30.00S
DUBOIS         SUNNY     73  61  65 W7        30.00F
CLEARFIELD     SUNNY     74  62  66 SW3       30.00F
JOHNSTOWN      SUNNY     71  57  61 NW9       30.04F
ALTOONA        SUNNY     76  61  59 NW7       30.01F
STATE COLLEGE  SUNNY     73  61  64 CALM      29.98F
WILLIAMSPORT   SUNNY     75  59  57 W10       29.93F
SELINSGROVE    SUNNY     79  63  57 VRB3      29.95S
FT INDIANTOWN  SUNNY     78  61  55 VRB7      29.94S
CAPITAL CITY   SUNNY     80  59  48 W9        29.94S
HARRISBURG     SUNNY     79  61  53 NW9       29.93S
YORK           SUNNY     78  64  61 VRB6      29.95S
$$

PAZ038>040-043-044-047-048-054-055-060>062-067>071-311500-
EASTERN PENNSYLVANIA

CITY           SKY/WX    TMP DP  RH WIND       PRES   REMARKS
SCRANTON       SUNNY     75  60  59 SW6       29.94S
MOUNT POCONO   SUNNY     72  58  61 W9        29.97S
ALLENTOWN      SUNNY     78  63  59 CALM      29.92S
QUAKERTOWN*    SUNNY     77  63  61 NW8       29.94R
READING        SUNNY     79  62  56 W5        29.92S
LANCASTER      SUNNY     78  62  57 W13       29.94S
COATESVILLE    SUNNY     77  63  61 NW13      29.96S
POTTSTOWN      SUNNY     78  62  57 VRB5      29.94S
BLUE BELL      SUNNY     81  63  54 W6        29.92S
DOYLESTOWN     SUNNY     78  60  53 NW3       29.91S
WILLOW GROVE   NOT AVBL
NORTH PHILA    SUNNY     82  58  43 NW13      29.92S
PHILADELPHIA   SUNNY     82  59  45 NW12      29.91S
$$


USA.gov is the U.S. government's official web portal to all federal, state and local government web resources and services.